Change the Weather History Date:

Friday, October 18, 2013

  Actual Average (KMMV) Record (KMMV)
Temperature  
Mean Temperature 52 °F 51 °F  
Max Temperature 68 °F 62 °F 80 °F (1978)
Min Temperature 35 °F 41 °F 22 °F (1908)
Degree Days  
Heating Degree Days 14 14  
Month to date heating degree days 201  
Since 1 July heating degree days 417  
Cooling Degree Days 0 0  
Month to date cooling degree days 0  
Year to date cooling degree days 214  
Growing Degree Days 2 (Base 50)    
Moisture  
Dew Point 43 °F    
Average Humidity 82    
Maximum Humidity 100    
Minimum Humidity 40    
Precipitation  
Precipitation 0.00 in 0.12 in 1.34 in (1899)
Month to date precipitation 1.52  
Year to date precipitation 25.23  
Sea Level Pressure  
Sea Level Pressure 30.14 in    
Wind  
Wind Speed 0 mph (North)    
Max Wind Speed 0 mph    
Max Gust Speed -    
Visibility 9 miles    
Events Fog    
T = Trace of Precipitation, MM = Missing Value Source: NWS Daily Summary

Daily Weather History Graph

Daily Weather History Graph

Search for Another Location

Airport or City:

Trip Planner

Search our weather history database for the weather conditions in past years. The results will help you decide how hot, cold, wet, or windy it might be!

Date:

Astronomy

Oct. 18, 2013 Rise Set
Actual Time 8:35 AM MDT 7:24 PM MDT
Civil Twilight 8:05 AM MDT 7:53 PM MDT
Nautical Twilight 7:31 AM MDT 8:28 PM MDT
Astronomical Twilight 6:57 AM MDT 9:02 PM MDT
Moon 7:15 PM MDT (10/18) 8:17 AM MDT (10/18)
Length of Visible Light 11h 48m
Length of Day
10h 48m
Full, 100% of the Moon is Illuminated
Oct 18
Full
Oct 18
Full
Oct 26
Last Quarter
Nov 3
New
Nov 9
First Quarter

Hourly Weather History & Observations

Time (MDT) Temp. Dew Point Humidity Pressure Visibility Wind Dir Wind Speed Gust Speed Precip Events Conditions
12:15 AM 44.6 °F 44.6 °F 100% 30.17 in 0.2 mi Calm Calm - N/A Fog Fog
12:35 AM 42.8 °F 42.8 °F 100% 30.17 in 2.0 mi Calm Calm - N/A   Overcast
12:55 AM 41.0 °F 41.0 °F 100% 30.17 in 4.0 mi Calm Calm - N/A   Scattered Clouds
1:15 AM 41.0 °F 41.0 °F 100% 30.17 in 2.0 mi Calm Calm - N/A   Overcast
1:35 AM 41.0 °F 41.0 °F 100% 30.17 in 5.0 mi Calm Calm - N/A   Mostly Cloudy
1:55 AM 41.0 °F 41.0 °F 100% 30.17 in 7.0 mi Calm Calm - N/A   Overcast
2:15 AM 41.0 °F 41.0 °F 100% 30.17 in 0.8 mi Calm Calm - N/A   Overcast
2:35 AM 41.0 °F 41.0 °F 100% 30.17 in 3.0 mi Calm Calm - N/A   Overcast
2:55 AM 39.2 °F 39.2 °F 100% 30.17 in 7.0 mi Calm Calm - N/A   Scattered Clouds
3:15 AM 39.2 °F 39.2 °F 100% 30.17 in 7.0 mi Calm Calm - N/A   Clear
3:35 AM 39.2 °F 37.4 °F 93% 30.17 in 7.0 mi Calm Calm - N/A   Scattered Clouds
3:55 AM 39.2 °F 39.2 °F 100% 30.17 in 7.0 mi Calm Calm - N/A   Scattered Clouds
4:15 AM 37.4 °F 37.4 °F 100% 30.17 in 7.0 mi Calm Calm - N/A   Clear
4:35 AM 39.2 °F 39.2 °F 100% 30.17 in 10.0 mi Calm Calm - N/A   Clear
4:55 AM 41.0 °F 39.2 °F 93% 30.17 in 7.0 mi Calm Calm - N/A   Clear
5:15 AM 37.4 °F 37.4 °F 100% 30.16 in 7.0 mi Calm Calm - N/A   Clear
5:35 AM 37.4 °F 37.4 °F 100% 30.16 in 7.0 mi Calm Calm - N/A   Clear
5:55 AM 37.4 °F 37.4 °F 100% 30.16 in 7.0 mi Calm Calm - N/A   Clear
6:15 AM 37.4 °F 37.4 °F 100% 30.16 in 10.0 mi Calm Calm - N/A   Scattered Clouds
6:35 AM 37.4 °F 37.4 °F 100% 30.16 in 7.0 mi Calm Calm - N/A   Scattered Clouds
6:55 AM 37.4 °F 35.6 °F 93% 30.16 in 7.0 mi Calm Calm - N/A   Clear
7:15 AM 35.6 °F 35.6 °F 100% 30.16 in 7.0 mi Calm Calm - N/A   Clear
7:35 AM 37.4 °F 35.6 °F 93% 30.16 in 10.0 mi Calm Calm - N/A   Clear
7:55 AM 35.6 °F 35.6 °F 100% 30.16 in 10.0 mi Calm Calm - N/A   Clear
8:15 AM 35.6 °F 35.6 °F 100% 30.16 in 10.0 mi Calm Calm - N/A   Clear
8:35 AM 35.6 °F 35.6 °F 100% 30.16 in 10.0 mi Calm Calm - N/A   Clear
8:55 AM 35.6 °F 35.6 °F 100% 30.16 in 10.0 mi Calm Calm - N/A   Clear
9:15 AM 35.6 °F 35.6 °F 100% 30.16 in 7.0 mi Calm Calm - N/A   Clear
9:35 AM 37.4 °F 37.4 °F 100% 30.17 in 10.0 mi Calm Calm - N/A   Clear
9:55 AM 41.0 °F 41.0 °F 100% 30.17 in 10.0 mi Calm Calm - N/A   Clear
10:15 AM 42.8 °F 41.0 °F 93% 30.16 in 10.0 mi Calm Calm - N/A   Clear
10:35 AM 44.6 °F 42.8 °F 93% 30.16 in 10.0 mi Calm Calm - N/A   Clear
10:55 AM 46.4 °F 44.6 °F 93% 30.17 in 10.0 mi Calm Calm - N/A   Clear
11:15 AM 50.0 °F 46.4 °F 87% 30.17 in 10.0 mi Calm Calm - N/A   Clear
11:35 AM 53.6 °F 48.2 °F 82% 30.16 in 10.0 mi Calm Calm - N/A   Clear
11:55 AM 57.2 °F 48.2 °F 72% 30.16 in 10.0 mi Calm Calm - N/A   Clear
12:15 PM 59.0 °F 50.0 °F 72% 30.15 in 10.0 mi Calm Calm - N/A   Clear
12:35 PM 60.8 °F 48.2 °F 63% 30.15 in 10.0 mi Calm Calm - N/A   Clear
12:55 PM 64.4 °F 44.6 °F 49% 30.15 in 10.0 mi Calm Calm - N/A   Clear
1:15 PM 66.2 °F 42.8 °F 43% 30.15 in 10.0 mi Calm Calm - N/A   Clear
1:35 PM 68.0 °F 42.8 °F 40% 30.14 in 10.0 mi Calm Calm - N/A   Clear
1:55 PM 68.0 °F 42.8 °F 40% 30.14 in 10.0 mi Calm Calm - N/A   Clear
2:15 PM 68.0 °F 48.2 °F 49% 30.13 in 10.0 mi Calm Calm - N/A   Clear
2:35 PM 68.0 °F 46.4 °F 46% 30.12 in 10.0 mi Calm Calm - N/A   Clear
2:55 PM 68.0 °F 46.4 °F 46% 30.12 in 10.0 mi Calm Calm - N/A   Clear
3:15 PM 68.0 °F 51.8 °F 56% 30.12 in 10.0 mi Calm Calm - N/A   Clear
3:35 PM 66.2 °F 50.0 °F 56% 30.11 in 10.0 mi Calm Calm - N/A   Clear
3:55 PM 68.0 °F 48.2 °F 49% 30.11 in 10.0 mi Calm Calm - N/A   Clear
4:15 PM 68.0 °F 46.4 °F 46% 30.11 in 10.0 mi Calm Calm - N/A   Clear
4:35 PM 68.0 °F 46.4 °F 46% 30.11 in 10.0 mi Calm Calm - N/A   Clear
4:55 PM 68.0 °F 44.6 °F 43% 30.10 in 10.0 mi Calm Calm - N/A   Clear
5:15 PM 68.0 °F 46.4 °F 46% 30.10 in 10.0 mi Calm Calm - N/A   Clear
5:35 PM 68.0 °F 50.0 °F 52% 30.10 in 10.0 mi Calm Calm - N/A   Clear
5:55 PM 66.2 °F 51.8 °F 60% 30.09 in 10.0 mi Calm Calm - N/A   Clear
6:15 PM 64.4 °F 50.0 °F 59% 30.09 in 10.0 mi Calm Calm - N/A   Clear
6:35 PM 64.4 °F 46.4 °F 52% 30.09 in 10.0 mi Calm Calm - N/A   Clear
6:55 PM 62.6 °F 48.2 °F 59% 30.09 in 10.0 mi Calm Calm - N/A   Clear
7:15 PM 60.8 °F 51.8 °F 72% 30.09 in 10.0 mi Calm Calm - N/A   Clear
7:35 PM 55.4 °F 51.8 °F 88% 30.09 in 10.0 mi Calm Calm - N/A   Clear
7:55 PM 55.4 °F 50.0 °F 82% 30.10 in 10.0 mi Calm Calm - N/A   Clear
8:15 PM 53.6 °F 50.0 °F 88% 30.10 in 10.0 mi Calm Calm - N/A   Clear
8:35 PM 51.8 °F 46.4 °F 82% 30.10 in 10.0 mi Calm Calm - N/A   Clear
8:55 PM 51.8 °F 48.2 °F 88% 30.10 in 10.0 mi Calm Calm - N/A   Clear
9:15 PM 50.0 °F 46.4 °F 87% 30.10 in 10.0 mi Calm Calm - N/A   Clear
9:35 PM 48.2 °F 46.4 °F 93% 30.10 in 10.0 mi Calm Calm - N/A   Clear
9:55 PM 48.2 °F 44.6 °F 87% 30.10 in 10.0 mi Calm Calm - N/A   Clear
10:15 PM 46.4 °F 44.6 °F 93% 30.10 in 10.0 mi Calm Calm - N/A   Clear
10:35 PM 46.4 °F 42.8 °F 87% 30.11 in 10.0 mi Calm Calm - N/A   Clear
10:55 PM 46.4 °F 44.6 °F 93% 30.11 in 10.0 mi Calm Calm - N/A   Clear
11:15 PM 46.4 °F 44.6 °F 93% 30.12 in 10.0 mi Calm Calm - N/A   Clear
11:35 PM 44.6 °F 42.8 °F 93% 30.12 in 10.0 mi Calm Calm - N/A   Clear
11:55 PM 42.8 °F 42.8 °F 100% 30.12 in 10.0 mi Calm Calm - N/A   Clear